Weather History for Newport, VT

Change the Weather History Date:

Tuesday, July 23, 2013

  Actual Average Record
Temperature  
Mean Temperature 69 °F -  
Max Temperature 75 °F 79 °F 93 °F (1952)
Min Temperature 64 °F 54 °F 43 °F (1962)
Cooling Degree Days 4    
Growing Degree Days 19 (Base 50)    
Moisture  
Dew Point 63 °F    
Average Humidity 83    
Maximum Humidity 91    
Minimum Humidity 67    
Precipitation  
Precipitation 0.00 in - - ()
Sea Level Pressure  
Sea Level Pressure 29.70 in    
Wind  
Wind Speed 3 mph (South)    
Max Wind Speed 8 mph    
Max Gust Speed -    
Visibility 8 miles    
Events Rain    
Averages and records for this station are not official NWS values.
T = Trace of Precipitation, MM = Missing Value Source: NWS Daily Summary

Daily Weather History Graph

Daily Weather History Graph

Search for Another Location

Airport:

Trip Planner

Search our weather history database for the weather conditions in past years. The results will help you decide how hot, cold, wet, or windy it might be!

Date:

Astronomy

Jul. 23, 2013 Rise Set
Actual Time 5:24 AM EDT 8:25 PM EDT
Civil Twilight 4:50 AM EDT 8:59 PM EDT
Nautical Twilight 4:05 AM EDT 9:44 PM EDT
Astronomical Twilight 3:12 AM EDT 10:37 PM EDT
Moon 8:44 PM EDT (7/23) 6:35 AM EDT (7/23)
Length of Visible Light 16h 09m
Length of Day
15h 00m
Full, 99% of the Moon is Illuminated
Jul 23
Full
Jul 29
Last Quarter
Aug 6
New
Aug 14
First Quarter
Aug 20
Full

Hourly Weather History & Observations

Time (EDT) Temp. Dew Point Humidity Pressure Visibility Wind Dir Wind Speed Gust Speed Precip Events Conditions
12:15 AM 68.4 °F 61.7 °F 79% 29.87 in 10.0 mi South 8.1 mph - N/A   Mostly Cloudy
12:35 AM 68.4 °F 61.5 °F 79% 29.87 in 10.0 mi South 5.8 mph - N/A   Scattered Clouds
12:55 AM 68.2 °F 61.7 °F 80% 29.87 in 10.0 mi South 5.8 mph - N/A   Scattered Clouds
1:15 AM 68.0 °F 61.7 °F 80% 29.86 in 10.0 mi South 4.6 mph - N/A   Scattered Clouds
1:35 AM 68.0 °F 61.7 °F 80% 29.85 in 10.0 mi South 4.6 mph - N/A Rain Light Rain
1:55 AM 67.5 °F 61.9 °F 82% 29.85 in 10.0 mi SSW 3.5 mph - N/A Rain Light Rain
2:15 AM 66.4 °F 62.4 °F 87% 29.85 in 7.0 mi SW 4.6 mph - N/A   Drizzle
2:35 AM 66.4 °F 62.6 °F 88% 29.84 in 7.0 mi South 3.5 mph - N/A Rain Light Rain
2:55 AM 66.6 °F 62.6 °F 87% 29.84 in 7.0 mi Calm Calm - N/A Rain Rain
3:15 AM 66.4 °F 62.6 °F 88% 29.83 in 7.0 mi Calm Calm - N/A Rain Rain
3:35 AM 66.0 °F 62.6 °F 89% 29.83 in 7.0 mi SSE 3.5 mph - N/A Rain Light Rain
3:55 AM 65.5 °F 62.6 °F 90% 29.81 in 5.0 mi SE 6.9 mph - N/A Rain Light Rain
4:15 AM 65.5 °F 62.6 °F 90% 29.81 in 7.0 mi SSE 3.5 mph - N/A Rain Rain
4:35 AM 65.5 °F 62.6 °F 90% 29.80 in 7.0 mi Calm Calm - N/A Rain Light Rain
4:55 AM 65.3 °F 62.6 °F 91% 29.80 in 5.0 mi Calm Calm - N/A   Light Drizzle
5:15 AM 65.3 °F 62.6 °F 91% 29.79 in 7.0 mi South 3.5 mph - N/A   Light Drizzle
5:35 AM 65.3 °F 62.2 °F 90% 29.79 in 7.0 mi South 3.5 mph - N/A   Drizzle
5:55 AM 65.3 °F 62.2 °F 90% 29.79 in 7.0 mi Calm Calm - N/A Rain Light Rain
6:15 AM 64.9 °F 62.1 °F 90% 29.79 in 4.0 mi Calm Calm - N/A Rain Rain
6:35 AM 64.8 °F 61.7 °F 90% 29.78 in 5.0 mi SSE 3.5 mph - N/A Rain Rain
6:55 AM 64.6 °F 61.7 °F 90% 29.78 in 5.0 mi Calm Calm - N/A Rain Rain
7:15 AM 64.8 °F 61.9 °F 90% 29.77 in 4.0 mi Calm Calm - N/A Rain Rain
7:35 AM 64.9 °F 62.2 °F 91% 29.77 in 4.0 mi SSE 3.5 mph - N/A Rain Light Rain
7:55 AM 64.9 °F 62.2 °F 91% 29.76 in 4.0 mi Calm Calm - N/A Rain Light Rain
8:15 AM 65.3 °F 62.6 °F 91% 29.75 in 5.0 mi Calm Calm - N/A Rain Rain
8:35 AM 65.5 °F 62.6 °F 90% 29.75 in 5.0 mi Calm Calm - N/A Rain Rain
8:55 AM 65.7 °F 62.6 °F 90% 29.74 in 5.0 mi Calm Calm - N/A Rain Light Rain
9:15 AM 66.0 °F 62.6 °F 89% 29.73 in 5.0 mi Calm Calm - N/A Rain Light Rain
9:35 AM 66.2 °F 62.6 °F 88% 29.72 in 5.0 mi Calm Calm - N/A Rain Light Rain
9:55 AM 66.2 °F 62.8 °F 89% 29.72 in 5.0 mi Calm Calm - N/A Rain Light Rain
10:15 AM 66.2 °F 62.6 °F 88% 29.71 in 7.0 mi Calm Calm - N/A Rain Rain
10:35 AM 65.8 °F 62.6 °F 89% 29.70 in 5.0 mi Calm Calm - N/A Rain Rain
10:55 AM 65.8 °F 62.6 °F 89% 29.70 in 5.0 mi Calm Calm - N/A Rain Light Rain
11:15 AM 66.4 °F 62.6 °F 88% 29.69 in 7.0 mi Calm Calm - N/A Rain Light Rain
11:35 AM 66.4 °F 62.6 °F 88% 29.69 in 5.0 mi Calm Calm - N/A Rain Rain
11:55 AM 66.6 °F 63.1 °F 89% 29.68 in 4.0 mi NNE 3.5 mph - N/A Rain Light Rain
12:15 PM 66.2 °F 62.6 °F 88% 29.68 in 5.0 mi North 3.5 mph - N/A Rain Light Rain
12:35 PM 66.4 °F 62.8 °F 88% 29.67 in 5.0 mi North 3.5 mph - N/A Rain Light Rain
12:55 PM 66.4 °F 62.6 °F 88% 29.66 in 4.0 mi Calm Calm - N/A Rain Rain
1:15 PM 67.8 °F 63.5 °F 86% 29.66 in 5.0 mi Calm Calm - N/A Rain Light Rain
1:35 PM 68.9 °F 62.8 °F 81% 29.66 in 10.0 mi NW 3.5 mph - N/A   Overcast
1:55 PM 70.3 °F 63.0 °F 77% 29.64 in 10.0 mi Calm Calm - N/A   Mostly Cloudy
2:15 PM 70.5 °F 63.0 °F 77% 29.64 in 10.0 mi Calm Calm - N/A   Mostly Cloudy
2:35 PM 71.2 °F 62.6 °F 74% 29.63 in 10.0 mi Calm Calm - N/A   Overcast
2:55 PM 71.2 °F 62.6 °F 74% 29.63 in 10.0 mi Calm Calm - N/A   Overcast
3:15 PM 72.7 °F 63.5 °F 73% 29.62 in 10.0 mi Calm Calm - N/A   Mostly Cloudy
3:35 PM 73.2 °F 64.4 °F 74% 29.61 in 10.0 mi Calm Calm - N/A   Mostly Cloudy
4:15 PM 72.0 °F 63.0 °F 73% 29.61 in 10.0 mi Calm Calm - N/A   Mostly Cloudy
4:35 PM 73.8 °F 62.8 °F 68% 29.61 in 10.0 mi Calm Calm - N/A   Overcast
4:55 PM 73.9 °F 62.6 °F 68% 29.60 in 10.0 mi Calm Calm - N/A   Mostly Cloudy
5:15 PM 74.8 °F 63.3 °F 67% 29.59 in 10.0 mi Calm Calm - N/A   Mostly Cloudy
5:35 PM 73.6 °F 63.3 °F 70% 29.60 in 10.0 mi West 3.5 mph - N/A   Mostly Cloudy
5:55 PM 73.0 °F 63.7 °F 72% 29.60 in 10.0 mi Calm Calm - N/A   Scattered Clouds
6:15 PM 74.5 °F 63.1 °F 68% 29.58 in 10.0 mi Calm Calm - N/A   Clear
6:35 PM 74.1 °F 62.8 °F 68% 29.59 in 10.0 mi Calm Calm - N/A   Clear
6:55 PM 74.3 °F 62.8 °F 67% 29.59 in 10.0 mi Calm Calm - N/A   Clear
7:15 PM 73.8 °F 64.0 °F 72% 29.59 in 10.0 mi Calm Calm - N/A   Scattered Clouds
7:35 PM 72.9 °F 64.6 °F 75% 29.58 in 10.0 mi Calm Calm - N/A   Scattered Clouds
7:55 PM 72.0 °F 65.3 °F 79% 29.57 in 10.0 mi Calm Calm - N/A   Clear
8:15 PM 68.9 °F 64.9 °F 87% 29.57 in 10.0 mi Calm Calm - N/A   Clear
8:35 PM 70.7 °F 63.3 °F 77% 29.59 in 10.0 mi SSW 3.5 mph - N/A   Clear
8:55 PM 68.4 °F 63.7 °F 85% 29.59 in 10.0 mi SSW 4.6 mph - N/A   Clear
9:15 PM 68.5 °F 63.5 °F 84% 29.60 in 10.0 mi South 3.5 mph - N/A   Clear
9:35 PM 67.1 °F 63.1 °F 87% 29.60 in 10.0 mi South 3.5 mph - N/A   Clear
9:55 PM 67.5 °F 63.3 °F 87% 29.59 in 10.0 mi South 3.5 mph - N/A   Scattered Clouds
10:15 PM 67.1 °F 63.0 °F 87% 29.60 in 7.0 mi South 3.5 mph - N/A   Mostly Cloudy
10:35 PM 67.1 °F 62.8 °F 86% 29.60 in 10.0 mi South 3.5 mph - N/A   Mostly Cloudy
10:55 PM 66.2 °F 62.6 °F 88% 29.59 in 10.0 mi South 4.6 mph - N/A   Scattered Clouds
11:15 PM 66.2 °F 62.8 °F 89% 29.59 in 10.0 mi South 3.5 mph - N/A   Mostly Cloudy
11:35 PM 66.4 °F 62.6 °F 88% 29.59 in 10.0 mi South 4.6 mph - N/A   Scattered Clouds
11:55 PM 66.0 °F 62.1 °F 87% 29.59 in 10.0 mi SSW 5.8 mph - N/A   Clear